Location: ????????
(55.6189°N, 38.3031°E)
Time: 23:59:07
(UTC+00:00)

CZ-2C R/B - Pass Details

Date: 15 November 2019
Orbit: 784 x 871 km, 98.3° (Epoch: 06 December)

Event Time Altitude Azimuth Distance (km) Brightness Sun altitude
Rises 03:43:30 0° 127° (SE) 3,434 7.4 -10.7°
Reaches altitude 10° 03:46:07 10° 117° (ESE) 2,491 6.7 -10.3°
Maximum altitude 03:50:54 31° 58° (ENE) 1,448 4.4 -9.7°
Drops below altitude 10° 03:55:37 10° 358° (N) 2,456 4.9 -9.1°
Sets 03:58:11 0° 348° (NNW) 3,379 5.5 -8.7°
